Weather History for KTTF - November, 2011

Change the Weather History Date:

Tuesday, November 15, 2011

  Actual Average Record
Temperature  
Mean Temperature 50 °F -  
Max Temperature 59 °F 46 °F 70 °F (1953)
Min Temperature 41 °F 31 °F 11 °F (1933)
Degree Days  
Heating Degree Days 15    
Moisture  
Dew Point 47 °F    
Average Humidity 93    
Maximum Humidity 100    
Minimum Humidity 72    
Precipitation  
Precipitation 0.00 in - - ()
Sea Level Pressure  
Sea Level Pressure 29.78 in    
Wind  
Wind Speed 3 mph (SSW)    
Max Wind Speed 12 mph    
Max Gust Speed -    
Visibility 6 miles    
Events Fog    
Averages and records for this station are not official NWS values.
T = Trace of Precipitation, MM = Missing Value Source: NWS Daily Summary

Daily Weather History Graph

Daily Weather History Graph

Search for Another Location

Airport or City:

Trip Planner

Search our weather history database for the weather conditions in past years. The results will help you decide how hot, cold, wet, or windy it might be!

Date:

Astronomy

Nov. 15, 2011 Rise Set
Actual Time 7:23 AM EST 5:12 PM EST
Civil Twilight 6:53 AM EST 5:42 PM EST
Nautical Twilight 6:19 AM EST 6:16 PM EST
Astronomical Twilight 5:46 AM EST 6:49 PM EST
Moon 9:20 PM EST (11/15) 11:22 AM EST (11/15)
Length of Visible Light 10h 49m
Length of Day
9h 49m
Waning Gibbous, 79% of the Moon is Illuminated
Nov 15
Waning Gibbous
Nov 18
Last Quarter
Nov 25
New
Dec 2
First Quarter
Dec 10
Full

Hourly Weather History & Observations

Time (EST) Temp. Windchill Dew Point Humidity Pressure Visibility Wind Dir Wind Speed Gust Speed Precip Events Conditions
12:14 AM 42.8 °F - 42.8 °F 100% 29.71 in 0.2 mi Calm Calm - N/A Fog Fog
12:34 AM 42.8 °F - 42.8 °F 100% 29.73 in 0.5 mi Calm Calm - N/A Fog Fog
12:54 AM 42.8 °F - 42.8 °F 100% 29.73 in 0.8 mi Calm Calm - N/A   Mostly Cloudy
1:14 AM 42.8 °F - 42.8 °F 100% 29.74 in 0.5 mi Calm Calm - N/A Fog Fog
1:34 AM 42.8 °F - 42.8 °F 100% 29.74 in 1.2 mi Calm Calm - N/A   Mostly Cloudy
1:54 AM 42.8 °F - 42.8 °F 100% 29.73 in 1.8 mi Calm Calm - N/A   Mist
2:14 AM 42.8 °F - 42.8 °F 100% 29.74 in 1.5 mi Calm Calm - N/A   Mist
2:35 AM 42.8 °F - 42.8 °F 100% 29.75 in 2.0 mi Calm Calm - N/A   Clear
2:50 AM 42.8 °F - 42.8 °F 100% 29.75 in 2.5 mi Calm Calm - N/A   Clear
3:12 AM 42.8 °F 41.1 °F 42.8 °F 100% 29.75 in 2.5 mi WSW 3.5 mph - N/A   Clear
3:32 AM 42.8 °F 41.1 °F 42.8 °F 100% 29.75 in 2.5 mi West 3.5 mph - N/A   Clear
3:52 AM 44.6 °F 43.1 °F 44.6 °F 100% 29.75 in 3.0 mi West 3.5 mph - N/A   Clear
4:12 AM 44.6 °F 42.2 °F 44.6 °F 100% 29.75 in 4.0 mi West 4.6 mph - N/A   Clear
4:32 AM 44.6 °F 42.2 °F 44.6 °F 100% 29.75 in 5.0 mi WSW 4.6 mph - N/A   Clear
4:52 AM 44.6 °F 43.1 °F 44.6 °F 100% 29.76 in 5.0 mi West 3.5 mph - N/A   Clear
5:12 AM 42.8 °F - 42.8 °F 100% 29.76 in 4.0 mi Calm Calm - N/A   Clear
5:33 AM 42.8 °F 41.1 °F 42.8 °F 100% 29.76 in 5.0 mi West 3.5 mph - N/A   Clear
5:53 AM 44.6 °F - 44.6 °F 100% 29.77 in 4.0 mi Calm Calm - N/A   Clear
6:13 AM 42.8 °F - 42.8 °F 100% 29.77 in 3.0 mi Calm Calm - N/A   Clear
6:33 AM 42.8 °F - 42.8 °F 100% 29.79 in 3.0 mi Calm Calm - N/A   Clear
6:53 AM 42.8 °F - 42.8 °F 100% 29.79 in 2.5 mi Calm Calm - N/A   Clear
8:13 AM 42.8 °F - 42.8 °F 100% 29.82 in 0.2 mi Calm Calm - N/A Fog Fog
8:34 AM 41.0 °F - 41.0 °F 100% 29.82 in 0.2 mi Calm Calm - N/A Fog Fog
8:54 AM 42.8 °F - 42.8 °F 100% 29.82 in 1.2 mi Calm Calm - N/A   Mostly Cloudy
9:14 AM 44.6 °F - 44.6 °F 100% 29.82 in 1.8 mi Calm Calm - N/A   Mist
9:34 AM 44.6 °F - 44.6 °F 100% 29.83 in 2.5 mi Calm Calm - N/A   Clear
10:14 AM 46.4 °F - 46.4 °F 100% 29.83 in 4.0 mi Calm Calm - N/A   Clear
10:34 AM 48.2 °F - 48.2 °F 100% 29.84 in 5.0 mi South 6.9 mph - N/A   Clear
10:54 AM 48.2 °F - 48.2 °F 100% 29.83 in 7.0 mi South 6.9 mph - N/A   Clear
11:14 AM 51.8 °F - 51.8 °F 100% 29.82 in 7.0 mi SSE 6.9 mph - N/A   Clear
11:34 AM 53.6 °F - 50.0 °F 88% 29.81 in 10.0 mi SSE 4.6 mph - N/A   Clear
11:55 AM 53.6 °F - 46.4 °F 77% 29.80 in 10.0 mi SE 8.1 mph - N/A   Clear
12:15 PM 55.4 °F - 46.4 °F 72% 29.80 in 10.0 mi South 10.4 mph - N/A   Clear
12:35 PM 55.4 °F - 46.4 °F 72% 29.80 in 10.0 mi South 6.9 mph - N/A   Clear
12:55 PM 55.4 °F - 48.2 °F 77% 29.79 in 7.0 mi South 9.2 mph - N/A   Clear
1:10 PM 55.4 °F - 48.2 °F 77% 29.79 in 7.0 mi South 8.1 mph - N/A   Clear
1:30 PM 55.4 °F - 50.0 °F 82% 29.79 in 7.0 mi South 4.6 mph - N/A   Mostly Cloudy
2:11 PM 57.2 °F - 51.8 °F 82% 29.79 in 7.0 mi SSW 10.4 mph - N/A   Mostly Cloudy
2:31 PM 57.2 °F - 51.8 °F 82% 29.78 in 7.0 mi SW 6.9 mph - N/A   Mostly Cloudy
2:51 PM 57.2 °F - 51.8 °F 82% 29.77 in 7.0 mi WSW 6.9 mph - N/A   Mostly Cloudy
3:11 PM 57.2 °F - 51.8 °F 82% 29.77 in 10.0 mi SSW 6.9 mph - N/A   Scattered Clouds
3:32 PM 57.2 °F - 51.8 °F 82% 29.77 in 10.0 mi SSW 8.1 mph - N/A   Clear
3:52 PM 59.0 °F - 50.0 °F 72% 29.77 in 10.0 mi SSW 9.2 mph - N/A   Clear
4:12 PM 57.2 °F - 51.8 °F 82% 29.78 in 10.0 mi South 11.5 mph - N/A   Clear
4:32 PM 55.4 °F - 51.8 °F 88% 29.77 in 10.0 mi South 11.5 mph - N/A   Clear
4:52 PM 55.4 °F - 50.0 °F 82% 29.78 in 10.0 mi SSW 10.4 mph - N/A   Mostly Cloudy
5:13 PM 55.4 °F - 50.0 °F 82% 29.78 in 10.0 mi SSW 9.2 mph - N/A   Scattered Clouds
5:33 PM 53.6 °F - 50.0 °F 88% 29.79 in 10.0 mi SSW 9.2 mph - N/A   Mostly Cloudy
5:53 PM 53.6 °F - 51.8 °F 94% 29.78 in 10.0 mi South 8.1 mph - N/A   Overcast
6:13 PM 53.6 °F - 51.8 °F 94% 29.79 in 10.0 mi SSW 6.9 mph - N/A   Scattered Clouds
6:33 PM 53.6 °F - 50.0 °F 88% 29.79 in 10.0 mi SSW 6.9 mph - N/A   Clear
6:54 PM 53.6 °F - 48.2 °F 82% 29.80 in 10.0 mi SSW 5.8 mph - N/A   Clear
7:14 PM 53.6 °F - 48.2 °F 82% 29.81 in 10.0 mi SSW 6.9 mph - N/A   Clear
7:34 PM 53.6 °F - 48.2 °F 82% 29.81 in 10.0 mi SSW 6.9 mph - N/A   Clear
7:54 PM 51.8 °F - 48.2 °F 88% 29.81 in 10.0 mi SSW 5.8 mph - N/A   Clear
8:14 PM 51.8 °F - 51.8 °F 100% 29.81 in 10.0 mi SSW 5.8 mph - N/A   Clear
8:35 PM 51.8 °F - 51.8 °F 100% 29.82 in 10.0 mi SSW 5.8 mph - N/A   Mostly Cloudy
8:55 PM 51.8 °F - 51.8 °F 100% 29.82 in 10.0 mi SSW 5.8 mph - N/A   Scattered Clouds
9:15 PM 51.8 °F - 51.8 °F 100% 29.82 in 7.0 mi SSW 5.8 mph - N/A   Mostly Cloudy
9:35 PM 51.8 °F - 51.8 °F 100% 29.82 in 10.0 mi SSW 5.8 mph - N/A   Scattered Clouds
9:50 PM 51.8 °F - 51.8 °F 100% 29.82 in 10.0 mi SSW 6.9 mph - N/A   Scattered Clouds
10:11 PM 50.0 °F - 50.0 °F 100% 29.82 in 7.0 mi SSW 5.8 mph - N/A   Clear
10:31 PM 48.2 °F - 48.2 °F 100% 29.81 in 5.0 mi South 5.8 mph - N/A   Clear
10:51 PM 48.2 °F - 48.2 °F 100% 29.80 in 5.0 mi South 4.6 mph - N/A   Clear
11:11 PM 48.2 °F - 48.2 °F 100% 29.80 in 4.0 mi South 4.6 mph - N/A   Clear
11:31 PM 46.4 °F 44.3 °F 46.4 °F 100% 29.81 in 4.0 mi South 4.6 mph - N/A   Scattered Clouds
11:51 PM 46.4 °F 44.3 °F 46.4 °F 100% 29.81 in 5.0 mi SSW 4.6 mph - N/A   Clear